CST,Max TemperatureF,Mean TemperatureF,Min TemperatureF,Max Dew PointF,MeanDew PointF,Min DewpointF,Max Humidity, Mean Humidity, Min Humidity, Max Sea Level PressureIn, Mean Sea Level PressureIn, Min Sea Level PressureIn, Max VisibilityMiles, Mean VisibilityMiles, Min VisibilityMiles, Max Wind SpeedMPH, Mean Wind SpeedMPH, Max Gust SpeedMPH,PrecipitationIn, CloudCover, Events, WindDirDegrees
2012-2-1,54,36,18,25,20,16,88,57,26,30.22,30.15,30.07,10,10,10,12,5,15,0.00,0,,278
2012-2-2,54,36,17,25,18,14,88,55,22,30.28,30.21,30.15,10,10,10,14,4,17,0.00,0,,231
2012-2-3,33,30,26,30,27,20,92,79,66,30.45,30.36,30.25,10,7,0,20,9,26,0.14,7,Fog-Snow,9
2012-2-4,38,27,15,28,25,12,100,82,64,30.54,30.47,30.36,10,7,3,18,8,23,0.00,5,,333
2012-2-5,48,29,10,30,19,9,92,65,38,30.51,30.42,30.28,10,10,10,9,4,10,0.00,0,,235
2012-2-6,47,31,14,25,22,12,92,65,37,30.43,30.27,30.11,10,9,4,26,9,33,T,4,Rain,331
2012-2-7,27,17,6,25,16,4,100,89,77,30.64,30.51,30.35,10,6,1,21,10,28,T,7,Rain-Snow,356
2012-2-8,33,18,3,21,14,0,92,77,61,30.60,30.39,30.18,10,10,10,14,6,17,0.00,4,,205
2012-2-9,50,28,6,24,15,4,92,62,31,30.28,30.17,30.03,10,10,8,28,13,36,T,2,Snow,302
2012-2-10,24,11,-2,14,1,-9,76,56,36,30.75,30.48,30.22,10,10,4,22,13,26,T,4,Snow,7
2012-2-11,25,6,-14,-1,-8,-18,83,52,21,30.91,30.71,30.45,10,10,10,14,6,17,0.00,0,,224
2012-2-12,32,17,2,16,9,-3,86,67,47,30.53,30.16,29.86,10,10,10,25,12,32,0.00,2,,177
2012-2-13,46,33,19,19,16,14,84,58,31,29.85,29.76,29.69,10,10,5,17,7,23,0.00,2,,274
2012-2-14,54,36,18,27,21,14,92,56,20,29.80,29.74,29.67,10,10,10,17,8,23,0.00,3,,240
2012-2-15,41,30,18,32,22,13,96,68,40,30.23,30.00,29.76,10,10,10,24,12,31,0.00,3,,316
2012-2-16,50,31,12,22,15,9,92,57,22,30.30,30.18,30.07,10,10,10,21,8,29,0.00,0,,261
2012-2-17,41,26,11,18,13,8,92,65,37,30.32,30.20,30.07,10,10,10,16,6,22,0.00,0,,303
2012-2-18,50,29,7,27,18,5,84,61,38,30.29,30.12,29.92,10,10,10,22,10,28,0.00,1,,201
2012-2-19,49,37,25,32,27,20,89,64,39,29.94,29.83,29.72,10,10,8,25,13,32,0.00,3,,187
2012-2-20,37,29,20,34,31,17,100,91,81,29.86,29.68,29.61,10,4,0,24,11,31,0.56,7,Fog-Rain-Snow,358
2012-2-21,39,26,12,29,20,9,92,76,59,29.94,29.80,29.65,10,10,10,13,7,15,0.00,3,,250
2012-2-22,46,39,31,36,33,27,92,79,65,29.64,29.47,29.30,10,10,10,16,8,22,0.00,5,,262
2012-2-23,39,32,24,34,25,19,92,72,52,30.01,29.66,29.32,10,9,1,44,20,61,T,5,Snow,314
2012-2-24,37,28,18,27,22,16,92,74,56,30.31,30.13,30.02,10,8,0,26,11,37,0.02,6,Fog-Snow,312
2012-2-25,44,29,14,26,19,12,96,71,45,30.30,29.95,29.59,10,10,10,36,14,44,0.00,2,,162
2012-2-26,42,29,16,25,17,7,67,50,33,30.39,29.94,29.55,10,10,10,46,20,58,T,3,,304
2012-2-27,42,24,6,19,13,4,83,60,37,30.49,30.32,30.06,10,10,10,28,12,35,0.00,0,,186
2012-2-28,37,30,22,34,27,19,100,76,52,30.04,29.63,29.45,10,4,0,30,13,66,0.83,7,Fog-Rain-Snow,60
2012-2-29,35,23,11,24,18,11,92,74,56,29.90,29.70,29.49,10,5,0,29,15,39,0.72,5,Fog-Snow,295